CW9792 Weather Reports


time (UTC)temp
C
wind
direction
speed
KPH
gust
KPH
rain 1hr
cm
rain 24hr
cm
rain mn
cm
humidity
%
barometer
mb
20260905224607 33 33 0.0 0.0 0.00 0.00 0.00 42 1009.6
20260905224036 33 32 0.0 0.0 0.00 0.00 0.00 42 1009.7
20260905223535 33 34 0.0 0.0 0.00 0.00 0.00 42 1009.6
20260905223042 33 19 0.0 0.0 0.00 0.00 0.00 42 1009.6
20260905222535 33 36 0.0 0.0 0.00 0.00 0.00 42 1009.7
20260905222037 33 9 0.0 0.0 0.00 0.00 0.00 42 1009.7
20260905221536 33 355 0.0 0.0 0.00 0.00 0.00 41 1009.7
20260905221035 33 360 0.0 0.0 0.00 0.00 0.00 40 1009.7
20260905220534 33 5 0.0 0.0 0.00 0.00 0.00 39 1009.6
20260905220034 33 22 0.0 0.0 0.00 0.00 0.00 39 1009.6
20260905215534 33 17 0.0 0.0 0.00 0.00 0.00 40 1009.6
20260905215032 33 360 0.0 0.0 0.00 0.00 0.00 40 1009.7
20260905214538 33 18 0.0 0.0 0.00 0.00 0.00 39 1009.7
20260905214032 33 346 0.0 0.0 0.00 0.00 0.00 40 1009.7
20260905213533 34 314 0.0 0.0 0.00 0.00 0.00 40 1009.8
20260905213033 33 348 0.0 0.0 0.00 0.00 0.00 40 1009.9
20260905212535 34 347 0.0 0.0 0.00 0.00 0.00 39 1009.8
20260905212030 34 343 0.0 0.0 0.00 0.00 0.00 39 1009.7
20260905211542 34 360 0.0 0.0 0.00 0.00 0.00 40 1009.8
20260905211032 34 355 0.0 0.0 0.00 0.00 0.00 38 1009.8
20260905210530 34 11 0.0 0.0 0.00 0.00 0.00 38 1009.8
20260905210040 35 344 0.0 0.0 0.00 0.00 0.00 37 1010.0
20260905205529 35 304 0.0 0.0 0.00 0.00 0.00 38 1009.9
20260905205029 35 328 0.0 1.6 0.00 0.00 0.00 36 1010.0
20260905204528 36 290 0.0 1.6 0.00 0.00 0.00 36 1010.0
20260905204027 35 340 0.0 0.0 0.00 0.00 0.00 38 1010.1
20260905203527 35 346 0.0 0.0 0.00 0.00 0.00 37 1010.2
20260905203027 34 303 0.0 0.0 0.00 0.00 0.00 39 1010.3
20260905202527 34 300 0.0 0.0 0.00 0.00 0.00 40 1010.3
20260905202024 33 327 0.0 0.0 0.00 0.00 0.00 41 1010.4
20260905201524 33 285 0.0 1.6 0.00 0.00 0.00 40 1010.5
20260905201024 33 238 0.0 0.0 0.00 0.00 0.00 41 1010.6
20260905200527 33 291 0.0 0.0 0.00 0.00 0.00 40 1010.7
20260905200027 35 296 0.0 0.0 0.00 0.00 0.00 39 1010.7
20260905195523 35 339 0.0 0.0 0.00 0.00 0.00 38 1010.7
20260905195026 35 301 0.0 0.0 0.00 0.00 0.00 38 1010.7
20260905194521 35 5 0.0 0.0 0.00 0.00 0.00 37 1010.8
20260905194021 35 349 0.0 0.0 0.00 0.00 0.00 38 1011.0
20260905193522 35 283 0.0 0.0 0.00 0.00 0.00 38 1011.0
20260905193019 35 333 0.0 0.0 0.00 0.00 0.00 38 1011.1
20260905192520 35 342 0.0 0.0 0.00 0.00 0.00 38 1011.1
20260905192020 35 256 0.0 0.0 0.00 0.00 0.00 39 1011.1
20260905191518 35 261 0.0 0.0 0.00 0.00 0.00 37 1011.1
20260905191019 36 209 0.0 0.0 0.00 0.00 0.00 36 1011.2
20260905190517 35 277 0.0 0.0 0.00 0.00 0.00 37 1011.3
20260905190017 35 290 0.0 1.6 0.00 0.00 0.00 37 1011.4
20260905185516 36 251 0.0 1.6 0.00 0.00 0.00 36 1011.4
20260905185014 35 46 0.0 0.0 0.00 0.00 0.00 37 1011.6
20260905184525 34 28 0.0 0.0 0.00 0.00 0.00 38 1011.8
20260905184014 33 24 0.0 0.0 0.00 0.00 0.00 39 1011.8
20260905183514 33 350 0.0 0.0 0.00 0.00 0.00 39 1011.9
20260905183013 34 309 0.0 0.0 0.00 0.00 0.00 39 1011.9
20260905182512 34 150 0.0 0.0 0.00 0.00 0.00 39 1012.0
20260905182012 34 159 0.0 0.0 0.00 0.00 0.00 38 1012.0
20260905181512 34 156 0.0 0.0 0.00 0.00 0.00 39 1012.0
20260905181012 34 208 0.0 0.0 0.00 0.00 0.00 39 1012.0
20260905180515 34 181 0.0 0.0 0.00 0.00 0.00 39 1012.1
20260905180011 34 178 0.0 0.0 0.00 0.00 0.00 40 1012.3
20260905175511 33 306 0.0 0.0 0.00 0.00 0.00 39 1012.4
20260905175011 34 144 0.0 0.0 0.00 0.00 0.00 39 1012.4
20260905174510 34 140 0.0 0.0 0.00 0.00 0.00 38 1012.5
20260905174009 33 144 0.0 0.0 0.00 0.00 0.00 39 1012.5
20260905173509 33 25 0.0 0.0 0.00 0.00 0.00 40 1012.7
20260905173007 33 131 0.0 0.0 0.00 0.00 0.00 40 1012.7
20260905172508 33 68 0.0 0.0 0.00 0.00 0.00 39 1012.8
20260905172009 33 142 0.0 0.0 0.00 0.00 0.00 40 1012.8
20260905171505 33 144 0.0 0.0 0.00 0.00 0.00 40 1012.8
20260905171004 32 90 0.0 0.0 0.00 0.00 0.00 42 1012.7
20260905170504 33 110 0.0 0.0 0.00 0.00 0.00 40 1012.9
20260905170004 32 111 0.0 0.0 0.00 0.00 0.00 42 1013.0
20260905165501 32 140 0.0 0.0 0.00 0.00 0.00 44 1013.2
20260905165100 32 111 0.0 0.0 0.00 0.00 0.00 45 1013.2
20260905164607 31 76 0.0 0.0 0.00 0.00 0.00 45 1013.2
20260905164058 31 105 0.0 0.0 0.00 0.00 0.00 46 1013.3
20260905163558 31 123 0.0 0.0 0.00 0.00 0.00 46 1013.3
20260905163059 31 142 0.0 0.0 0.00 0.00 0.00 47 1013.4
20260905162556 31 113 0.0 0.0 0.00 0.00 0.00 49 1013.6
20260905162054 30 138 0.0 0.0 0.00 0.00 0.00 50 1013.5
20260905161606 30 84 0.0 0.0 0.00 0.00 0.00 51 1013.4
20260905161052 30 110 0.0 0.0 0.00 0.00 0.00 52 1013.3
20260905160552 30 38 0.0 1.6 0.00 0.00 0.00 52 1013.4
20260905160051 30 99 0.0 0.0 0.00 0.00 0.00 52 1013.4
20260905155549 29 73 0.0 0.0 0.00 0.00 0.00 52 1013.4
20260905155049 29 112 0.0 1.6 0.00 0.00 0.00 51 1013.6
20260905154548 29 61 0.0 0.0 0.00 0.00 0.00 52 1013.6
20260905154047 28 78 0.0 0.0 0.00 0.00 0.00 55 1013.7
20260905153547 28 65 0.0 1.6 0.00 0.00 0.00 56 1013.8
20260905153046 28 117 0.0 1.6 0.00 0.00 0.00 55 1013.9
20260905152546 28 129 0.0 0.0 0.00 0.00 0.00 55 1013.7
20260905152046 28 142 0.0 0.0 0.00 0.00 0.00 56 1013.8
20260905151546 28 105 0.0 0.0 0.00 0.00 0.00 56 1013.7
20260905151045 27 111 0.0 0.0 0.00 0.00 0.00 58 1013.8
20260905150545 27 122 0.0 1.6 0.00 0.00 0.00 57 1013.7
20260905150045 27 86 0.0 1.6 0.00 0.00 0.00 58 1013.6
20260905145545 27 73 0.0 0.0 0.00 0.00 0.00 58 1013.8
20260905145045 27 111 0.0 0.0 0.00 0.00 0.00 58 1013.9
20260905144545 27 93 0.0 0.0 0.00 0.00 0.00 58 1013.7
20260905144044 27 103 0.0 0.0 0.00 0.00 0.00 57 1013.7
20260905143545 27 41 0.0 0.0 0.00 0.00 0.00 57 1013.8
20260905143044 27 109 0.0 1.6 0.00 0.00 0.00 57 1013.8
20260905142548 27 79 0.0 1.6 0.00 0.00 0.00 58 1013.7
20260905142044 27 54 0.0 1.6 0.00 0.00 0.00 58 1013.8
20260905141544 27 44 0.0 1.6 0.00 0.00 0.00 57 1013.9
20260905141045 27 111 0.0 0.0 0.00 0.00 0.00 57 1014.0
20260905140543 27 123 0.0 1.6 0.00 0.00 0.00 57 1013.7
20260905140044 28 94 0.0 1.6 0.00 0.00 0.00 56 1014.1
20260905135542 28 63 0.0 0.0 0.00 0.00 0.00 57 1014.0
20260905135040 28 69 0.0 0.0 0.00 0.00 0.00 56 1013.6
20260905134540 28 124 0.0 0.0 0.00 0.00 0.00 57 1013.4
20260905134039 28 91 0.0 0.0 0.00 0.00 0.00 56 1013.4
20260905133538 27 77 0.0 0.0 0.00 0.00 0.00 57 1013.5
20260905133039 27 74 0.0 0.0 0.00 0.00 0.00 58 1013.4
20260905132535 27 59 0.0 0.0 0.00 0.00 0.00 57 1013.4
20260905132034 27 57 0.0 1.6 0.00 0.00 0.00 57 1013.6
20260905131533 27 46 0.0 0.0 0.00 0.00 0.00 58 1013.5
20260905131032 26 44 0.0 0.0 0.00 0.00 0.00 58 1013.5
20260905130530 26 32 0.0 0.0 0.00 0.00 0.00 59 1013.6
20260905130030 26 36 0.0 0.0 0.00 0.00 0.00 59 1013.6
20260905125533 26 37 0.0 0.0 0.00 0.00 0.00 59 1013.6
20260905125030 26 37 0.0 0.0 0.00 0.00 0.00 59 1013.6
20260905124527 26 194 0.0 0.0 0.00 0.00 0.00 61 1013.6
20260905124025 25 194 0.0 0.0 0.00 0.00 0.00 62 1013.5
20260905123524 25 194 0.0 0.0 0.00 0.00 0.00 63 1013.5
20260905123023 25 194 0.0 0.0 0.00 0.00 0.00 63 1013.3
20260905122523 24 194 0.0 0.0 0.00 0.00 0.00 64 1013.3
20260905122022 24 194 0.0 0.0 0.00 0.00 0.00 65 1013.4
20260905121522 23 193 0.0 0.0 0.00 0.00 0.00 65 1013.4
20260905121023 23 192 0.0 0.0 0.00 0.00 0.00 65 1013.3
20260905120522 23 192 0.0 0.0 0.00 0.00 0.00 65 1013.3
20260905120021 23 192 0.0 0.0 0.00 0.00 0.00 64 1013.3
20260905115524 23 192 0.0 0.0 0.00 0.00 0.00 64 1013.1
20260905115023 23 193 0.0 0.0 0.00 0.00 0.00 64 1013.0
20260905114520 23 193 0.0 0.0 0.00 0.00 0.00 64 1013.0
20260905114019 23 193 0.0 0.0 0.00 0.00 0.00 63 1013.0
20260905113524 23 193 0.0 0.0 0.00 0.00 0.00 63 1012.9
20260905113018 23 193 0.0 0.0 0.00 0.00 0.00 63 1012.8
20260905112517 23 193 0.0 0.0 0.00 0.00 0.00 62 1012.7
20260905112018 23 193 0.0 0.0 0.00 0.00 0.00 62 1012.7
20260905111519 23 193 0.0 0.0 0.00 0.00 0.00 62 1012.7
20260905111017 24 193 0.0 0.0 0.00 0.00 0.00 62 1012.5
20260905110518 24 193 0.0 0.0 0.00 0.00 0.00 61 1012.4
20260905110017 24 193 0.0 0.0 0.00 0.00 0.00 61 1012.4
20260905105517 24 193 0.0 0.0 0.00 0.00 0.00 60 1012.3
20260905105017 24 193 0.0 0.0 0.00 0.00 0.00 60 1012.2
20260905104516 25 192 0.0 0.0 0.00 0.00 0.00 60 1012.3
20260905104019 25 193 0.0 0.0 0.00 0.00 0.00 60 1012.2
20260905103520 25 193 0.0 0.0 0.00 0.00 0.00 59 1012.3
20260905103017 25 192 0.0 0.0 0.00 0.00 0.00 59 1012.3
20260905102515 25 193 0.0 0.0 0.00 0.00 0.00 59 1012.3
20260905102015 25 192 0.0 0.0 0.00 0.00 0.00 59 1012.2
20260905101515 25 193 0.0 0.0 0.00 0.00 0.00 59 1012.2
20260905101014 25 193 0.0 0.0 0.00 0.00 0.00 59 1012.1
20260905100514 25 193 0.0 0.0 0.00 0.00 0.00 60 1012.1
20260905100026 25 193 0.0 0.0 0.00 0.00 0.00 60 1012.1
20260905095512 25 184 0.0 0.0 0.00 0.00 0.00 61 1012.1
20260905095012 24 184 0.0 0.0 0.00 0.00 0.00 62 1012.0
20260905094518 24 184 0.0 0.0 0.00 0.00 0.00 62 1012.0
20260905094014 24 184 0.0 0.0 0.00 0.00 0.00 63 1011.9
20260905093513 23 184 0.0 0.0 0.00 0.00 0.00 63 1011.9
20260905093011 23 184 0.0 0.0 0.00 0.00 0.00 63 1011.9
20260905092513 23 184 0.0 0.0 0.00 0.00 0.00 64 1011.9
20260905092014 23 184 0.0 0.0 0.00 0.00 0.00 64 1011.8
20260905091512 23 184 0.0 0.0 0.00 0.00 0.00 64 1011.8
20260905091013 23 184 0.0 0.0 0.00 0.00 0.00 64 1011.8
20260905090510 23 184 0.0 0.0 0.00 0.00 0.00 64 1011.7
20260905090011 23 184 0.0 0.0 0.00 0.00 0.00 64 1011.7
20260905085510 23 184 0.0 0.0 0.00 0.00 0.00 63 1011.6
20260905085009 23 184 0.0 0.0 0.00 0.00 0.00 63 1011.6
20260905084510 23 184 0.0 0.0 0.00 0.00 0.00 63 1011.8
20260905084010 23 184 0.0 0.0 0.00 0.00 0.00 63 1011.7
20260905083510 23 184 0.0 0.0 0.00 0.00 0.00 63 1011.7
20260905083010 23 184 0.0 0.0 0.00 0.00 0.00 63 1011.8
20260905082509 23 184 0.0 0.0 0.00 0.00 0.00 63 1011.9
20260905082009 23 184 0.0 0.0 0.00 0.00 0.00 63 1011.8
20260905081509 24 184 0.0 0.0 0.00 0.00 0.00 63 1011.7
20260905081012 24 189 0.0 0.0 0.00 0.00 0.00 63 1011.7
20260905080508 23 202 0.0 0.0 0.00 0.00 0.00 63 1011.6
20260905080008 23 201 0.0 0.0 0.00 0.00 0.00 64 1011.5
20260905075509 23 177 0.0 0.0 0.00 0.00 0.00 64 1011.7
20260905075007 23 177 0.0 0.0 0.00 0.00 0.00 64 1011.7
20260905074507 23 177 0.0 0.0 0.00 0.00 0.00 64 1011.8
20260905074007 23 177 0.0 0.0 0.00 0.00 0.00 64 1011.9
20260905073506 23 177 0.0 0.0 0.00 0.00 0.00 64 1011.8
20260905073009 23 177 0.0 0.0 0.00 0.00 0.00 64 1011.8
20260905072507 23 177 0.0 0.0 0.00 0.00 0.00 64 1011.8
20260905072005 23 177 0.0 0.0 0.00 0.00 0.00 64 1011.9
20260905071504 23 175 0.0 0.0 0.00 0.00 0.00 65 1011.9
20260905071003 23 170 0.0 0.0 0.00 0.00 0.00 64 1012.0
20260905070503 23 170 0.0 0.0 0.00 0.00 0.00 64 1012.0
20260905070003 23 170 0.0 0.0 0.00 0.00 0.00 64 1012.0
20260905065503 23 170 0.0 0.0 0.00 0.00 0.00 64 1012.1
20260905065002 24 170 0.0 0.0 0.00 0.00 0.00 64 1012.2
20260905064619 24 170 0.0 0.0 0.00 0.00 0.00 64 1012.3
20260905064059 24 170 0.0 0.0 0.00 0.00 0.00 64 1012.3
20260905063559 24 170 0.0 0.0 0.00 0.00 0.00 64 1012.3
20260905063059 24 170 0.0 0.0 0.00 0.00 0.00 64 1012.4
20260905062557 24 170 0.0 0.0 0.00 0.00 0.00 64 1012.5
20260905062057 24 170 0.0 0.0 0.00 0.00 0.00 64 1012.5
20260905061604 24 170 0.0 0.0 0.00 0.00 0.00 64 1012.6
20260905061056 24 170 0.0 0.0 0.00 0.00 0.00 64 1012.6
20260905060600 24 170 0.0 0.0 0.00 0.00 0.00 64 1012.6
20260905060059 24 170 0.0 0.0 0.00 0.00 0.00 64 1012.6
20260905055555 24 170 0.0 0.0 0.00 0.00 0.00 64 1012.7
20260905055057 24 170 0.0 0.0 0.00 0.00 0.00 64 1012.6
20260905054703 24 170 0.0 0.0 0.00 0.00 0.00 64 1012.7
20260905054055 24 170 0.0 0.0 0.00 0.00 0.00 64 1012.7
20260905053555 24 170 0.0 0.0 0.00 0.00 0.00 64 1012.7
20260905053054 24 170 0.0 0.0 0.00 0.00 0.00 64 1012.7
20260905052553 24 170 0.0 0.0 0.00 0.00 0.00 64 1012.7
20260905052053 24 170 0.0 0.0 0.00 0.00 0.00 63 1012.7
20260905051553 24 170 0.0 0.0 0.00 0.00 0.00 63 1012.8
20260905051052 24 170 0.0 0.0 0.00 0.00 0.00 63 1012.7
20260905050552 24 170 0.0 0.0 0.00 0.00 0.00 63 1012.7
20260905050051 24 170 0.0 0.0 0.00 0.00 0.00 63 1012.8
20260905045552 24 170 0.0 0.0 0.00 0.00 0.00 63 1012.8
20260905045051 24 170 0.0 0.0 0.00 0.00 0.00 63 1012.8
20260905044604 25 170 0.0 0.0 0.00 0.00 0.00 63 1012.8
20260905044053 25 170 0.0 0.0 0.00 0.00 0.00 63 1012.8
20260905043550 25 170 0.0 0.0 0.00 0.00 0.00 63 1012.7
20260905043054 25 170 0.0 0.0 0.00 0.00 0.00 63 1012.7
20260905042549 25 170 0.0 0.0 0.00 0.00 0.00 63 1012.8
20260905042049 25 170 0.0 0.0 0.00 0.00 0.00 63 1012.8
20260905041549 25 170 0.0 0.0 0.00 0.00 0.00 63 1012.7
20260905041048 25 170 0.0 0.0 0.00 0.00 0.00 63 1012.8
20260905040548 25 170 0.0 0.0 0.00 0.00 0.00 63 1012.9
20260905040054 25 170 0.0 0.0 0.00 0.00 0.00 63 1012.9
20260905035547 25 170 0.0 0.0 0.00 0.00 0.00 63 1012.8
20260905035046 25 170 0.0 0.0 0.00 0.00 0.00 63 1013.0
20260905034559 25 170 0.0 0.0 0.00 0.00 0.00 63 1013.1
20260905034047 25 170 0.0 0.0 0.00 0.00 0.00 63 1013.1
20260905033550 25 170 0.0 0.0 0.00 0.00 0.00 63 1013.1
20260905033046 25 170 0.0 0.0 0.00 0.00 0.00 63 1013.1
20260905032548 25 170 0.0 0.0 0.00 0.00 0.00 63 1013.1
20260905032045 25 170 0.0 0.0 0.00 0.00 0.00 63 1013.0
20260905031549 25 170 0.0 0.0 0.00 0.00 0.00 63 1013.0
20260905031044 25 171 0.0 0.0 0.00 0.00 0.00 63 1013.0
20260905030545 25 171 0.0 0.0 0.00 0.00 0.00 63 1013.0
20260905030046 25 171 0.0 0.0 0.00 0.00 0.00 63 1013.0
20260905025544 25 152 0.0 0.0 0.00 0.00 0.00 63 1013.0
20260905025044 25 152 0.0 0.0 0.00 0.00 0.00 63 1013.1
20260905024555 26 151 0.0 0.0 0.00 0.00 0.00 63 1013.0
20260905024044 26 151 0.0 0.0 0.00 0.00 0.00 63 1013.0
20260905023544 26 152 0.0 0.0 0.00 0.00 0.00 63 1012.9
20260905023044 26 152 0.0 0.0 0.00 0.00 0.00 62 1012.9
20260905022543 26 151 0.0 0.0 0.00 0.00 0.00 62 1012.9
20260905022043 26 151 0.0 0.0 0.00 0.00 0.00 62 1013.0
20260905021544 26 151 0.0 0.0 0.00 0.00 0.00 62 1012.9
20260905021043 26 151 0.0 0.0 0.00 0.00 0.00 61 1013.0
20260905020547 26 151 0.0 0.0 0.00 0.00 0.00 61 1012.9
20260905020052 27 151 0.0 0.0 0.00 0.00 0.00 61 1012.8
20260905015542 27 151 0.0 0.0 0.00 0.00 0.00 61 1012.8
20260905015043 27 151 0.0 0.0 0.00 0.00 0.00 61 1012.8
20260905014543 27 151 0.0 0.0 0.00 0.00 0.00 61 1012.7
20260905014044 27 151 0.0 0.0 0.00 0.00 0.00 61 1012.7
20260905013542 27 151 0.0 0.0 0.00 0.00 0.00 61 1012.6
20260905013042 27 151 0.0 0.0 0.00 0.00 0.00 61 1012.6
20260905012544 27 151 0.0 0.0 0.00 0.00 0.00 60 1012.5
20260905012042 27 151 0.0 0.0 0.00 0.00 0.00 60 1012.5
20260905011541 27 151 0.0 0.0 0.00 0.00 0.00 59 1012.4
20260905011045 27 151 0.0 0.0 0.00 0.00 0.00 59 1012.4
20260905010541 27 151 0.0 0.0 0.00 0.00 0.00 59 1012.4
20260905010043 27 151 0.0 0.0 0.00 0.00 0.00 60 1012.3
20260905005541 28 151 0.0 0.0 0.00 0.00 0.00 59 1012.3
20260905005042 28 151 0.0 0.0 0.00 0.00 0.00 59 1012.3
20260905004541 28 151 0.0 0.0 0.00 0.00 0.00 58 1012.2
20260905004040 28 151 0.0 0.0 0.00 0.00 0.00 56 1012.1
20260905003540 29 151 0.0 1.6 0.00 0.00 0.00 56 1012.1
20260905003041 30 151 0.0 1.6 0.00 0.00 0.00 55 1012.1
20260905002539 30 5 0.0 0.0 0.00 0.00 0.00 54 1012.1
20260905002039 30 5 0.0 0.0 0.00 0.00 0.00 53 1012.1
20260905001539 31 5 0.0 0.0 0.00 0.00 0.00 52 1012.2
20260905001041 31 5 0.0 0.0 0.00 0.00 0.00 51 1012.2
20260905000542 31 5 0.0 0.0 0.00 0.00 0.00 50 1012.2
20260905000039 31 5 0.0 0.0 0.00 0.00 0.00 50 1012.2
20260904235541 32 5 0.0 0.0 0.00 0.00 0.00 49 1012.2
20260904235038 32 5 0.0 0.0 0.00 0.00 0.00 46 1012.3
20260904234538 33 5 0.0 0.0 0.00 0.00 0.00 45 1012.3
20260904234038 33 5 0.0 0.0 0.00 0.00 0.00 44 1012.3
20260904233542 33 5 0.0 0.0 0.00 0.00 0.00 44 1012.3
20260904233038 33 5 0.0 0.0 0.00 0.00 0.00 43 1012.3
20260904232541 33 5 0.0 0.0 0.00 0.00 0.00 41 1012.2
20260904232037 33 5 0.0 0.0 0.00 0.00 0.00 41 1012.2
20260904231552 34 5 0.0 0.0 0.00 0.00 0.00 40 1012.1
20260904231037 35 5 0.0 0.0 0.00 0.00 0.00 37 1012.2
20260904230537 35 5 0.0 0.0 0.00 0.00 0.00 36 1012.2
20260904230037 35 5 0.0 0.0 0.00 0.00 0.00 36 1012.2
20260904225536 35 355 0.0 0.0 0.00 0.00 0.00 37 1012.3
20260904225039 35 355 0.0 0.0 0.00 0.00 0.00 38 1012.2